Wautoma, WI

4:07 PM CDT on July 23, 2017 (GMT -0500)
Wautoma

Weather History for KY50 - July, 2014

Change the Weather History Date:

Tuesday, July 22, 2014

  Actual Average (KPCZ) Record (KPCZ)
Temperature  
Mean Temperature 82 °F -  
Max Temperature 93 °F 82 °F 96 °F (1983)
Min Temperature 68 °F 59 °F 49 °F (1966)
Cooling Degree Days 16    
Growing Degree Days 32 (Base 50)    
Moisture  
Dew Point 69 °F    
Average Humidity 68    
Maximum Humidity 88    
Minimum Humidity 44    
Precipitation  
Precipitation 0.00 in - - ()
Sea Level Pressure  
Sea Level Pressure 29.92 in    
Wind  
Wind Speed 9 mph (WSW)    
Max Wind Speed 15 mph    
Max Gust Speed 23 mph    
Visibility 10 miles    
Events      
Averages and records for this station are not official NWS values.
T = Trace of Precipitation, MM = Missing Value Source: NWS Daily Summary

Daily Weather History Graph

Daily Weather History Graph

Search for Another Location

Airport or City:

Trip Planner

Search our weather history database for the weather conditions in past years. The results will help you decide how hot, cold, wet, or windy it might be!

Date:

Astronomy

Jul. 22, 2014 Rise Set
Actual Time 5:34 AM CDT 8:31 PM CDT
Civil Twilight 5:00 AM CDT 9:06 PM CDT
Nautical Twilight 4:16 AM CDT 9:49 PM CDT
Astronomical Twilight 3:25 AM CDT 10:40 PM CDT
Moon 2:09 AM CDT (7/22) 5:08 PM CDT (7/22)
Length of Visible Light 16h 05m
Length of Day
14h 57m
Waning Crescent, 16% of the Moon is Illuminated
Jul 22
Waning Crescent
Jul 26
New
Aug 3
First Quarter
Aug 10
Full
Aug 17
Last Quarter

Hourly Weather History & Observations

Time (CDT) Temp. Heat Index Dew Point Humidity Pressure Visibility Wind Dir Wind Speed Gust Speed Precip Events Conditions
12:56 AM 72.9 °F - 68.9 °F 87% 29.96 in 10.0 mi SSE 4.6 mph - N/A   Partly Cloudy
1:56 AM 72.9 °F - 68.9 °F 87% 29.94 in 10.0 mi SSE 9.2 mph - N/A   Clear
2:56 AM 72.9 °F - 68.9 °F 87% 29.94 in 10.0 mi South 4.6 mph - N/A   Clear
3:56 AM 73.4 °F - 69.8 °F 88% 29.95 in 10.0 mi South 6.9 mph - N/A   Clear
4:56 AM 73.9 °F - 68.9 °F 84% 29.89 in 10.0 mi South 5.8 mph - N/A   Partly Cloudy
5:56 AM 73.9 °F - 68.9 °F 84% 29.89 in 10.0 mi South 6.9 mph - N/A   Clear
6:56 AM 74.8 °F - 68.9 °F 82% 29.89 in 10.0 mi South 9.2 mph - N/A   Mostly Cloudy
7:56 AM 77.9 °F - 68.9 °F 74% 29.88 in 10.0 mi South 9.2 mph - N/A   Clear
8:56 AM 81.0 °F 84.4 °F 70.0 °F 69% 29.88 in 10.0 mi SW 13.8 mph 19.6 mph N/A   Scattered Clouds
9:56 AM 81.9 °F 86.6 °F 72.0 °F 72% 29.88 in 10.0 mi SW 10.4 mph - N/A   Overcast
10:47 AM 84.2 °F 90.9 °F 73.4 °F 70% 29.89 in 10.0 mi SSW 10.4 mph 17.3 mph N/A   Scattered Clouds
10:56 AM 86.0 °F 93.0 °F 72.9 °F 65% 29.87 in 10.0 mi SW 15.0 mph 19.6 mph N/A   Scattered Clouds
12:56 PM 90.9 °F 100.0 °F 73.9 °F 57% 29.86 in 10.0 mi West 10.4 mph - N/A   Partly Cloudy
1:56 PM 92.8 °F 101.5 °F 72.9 °F 52% 29.86 in 10.0 mi West 10.4 mph - N/A   Partly Cloudy
2:56 PM 93.9 °F 102.1 °F 72.0 °F 49% 29.87 in 10.0 mi WNW 12.7 mph - N/A   Scattered Clouds
3:13 PM 91.4 °F 100.1 °F 73.4 °F 55% 29.91 in 10.0 mi NW 15.0 mph 19.6 mph N/A   Scattered Clouds
3:56 PM 90.9 °F 96.2 °F 70.0 °F 50% 29.88 in 10.0 mi NNW 15.0 mph 19.6 mph N/A   Partly Cloudy
4:56 PM 91.9 °F 95.4 °F 66.9 °F 44% 29.91 in 10.0 mi West 15.0 mph 19.6 mph N/A   Partly Cloudy
5:56 PM 88.0 °F 90.7 °F 66.9 °F 49% 29.93 in 10.0 mi NNW 13.8 mph 21.9 mph N/A   Clear
6:56 PM 84.2 °F 86.6 °F 66.2 °F 55% 29.98 in 10.0 mi NNW 11.5 mph - N/A   Clear
8:56 PM 77.0 °F - 64.9 °F 66% 30.00 in 10.0 mi NNW 6.9 mph - N/A   Clear
9:56 PM 73.9 °F - 61.9 °F 66% 30.02 in 10.0 mi North 13.8 mph 23.0 mph N/A   Clear
10:56 PM 70.9 °F - 59.9 °F 68% 30.04 in 10.0 mi North 10.4 mph - N/A   Clear
11:56 PM 68.9 °F - 59.0 °F 71% 30.07 in 10.0 mi North 10.4 mph - N/A   Clear